| time (UTC) | temp F | wind direction | speed knots | gust knots | rain 1hr in | rain 24hr in | rain mn in | humidity % | barometer mb |
| 20260502170511 | 62 | 227 | 0.9 | 3.5 | 0.02 | 0.02 | 0.02 | 75 | 1009.8 |
| 20260502164008 | 64 | 185 | 0.0 | 1.7 | 0.00 | 0.00 | 0.00 | 69 | 1009.8 |
| 20260502163508 | 64 | 185 | 0.0 | 1.7 | 0.00 | 0.00 | 0.00 | 66 | 1009.9 |
| 20260502163015 | 65 | 200 | 0.0 | 0.9 | 0.00 | 0.00 | 0.00 | 65 | 1009.9 |
| 20260502162507 | 65 | 109 | 0.0 | 1.7 | 0.00 | 0.00 | 0.00 | 62 | 1009.9 |
| 20260502162006 | 65 | 108 | 0.0 | 1.7 | 0.00 | 0.00 | 0.00 | 59 | 1010.0 |
| 20260502161506 | 65 | 45 | 0.0 | 2.6 | 0.00 | 0.00 | 0.00 | 57 | 1010.0 |
| 20260502161006 | 66 | 71 | 0.0 | 2.6 | 0.00 | 0.00 | 0.00 | 56 | 1010.0 |
| 20260502160507 | 66 | 147 | 0.0 | 2.6 | 0.00 | 0.00 | 0.00 | 56 | 1009.9 |
| 20260502152000 | 66 | 171 | 0.0 | 0.9 | 0.00 | 0.00 | 0.00 | 54 | 1010.5 |
| 20260502151607 | 66 | 169 | 0.0 | 4.3 | 0.00 | 0.00 | 0.00 | 55 | 1010.6 |
| 20260502151103 | 66 | 134 | 0.0 | 4.3 | 0.00 | 0.00 | 0.00 | 54 | 1010.8 |
| 20260502150558 | 66 | 146 | 0.0 | 1.7 | 0.00 | 0.00 | 0.00 | 54 | 1010.9 |
| 20260502130548 | 67 | 181 | 0.0 | 1.7 | 0.00 | 0.00 | 0.00 | 54 | 1012.4 |
| 20260502123540 | 66 | 148 | 0.0 | 2.6 | 0.00 | 0.00 | 0.00 | 55 | 1012.7 |
| 20260502123039 | 66 | 229 | 0.0 | 1.7 | 0.00 | 0.00 | 0.00 | 54 | 1012.9 |
| 20260502122539 | 65 | 287 | 0.0 | 8.7 | 0.00 | 0.00 | 0.00 | 57 | 1013.0 |
| 20260502122037 | 65 | 163 | 0.9 | 8.7 | 0.00 | 0.00 | 0.00 | 55 | 1013.0 |
| 20260502121539 | 65 | 289 | 0.0 | 6.1 | 0.00 | 0.00 | 0.00 | 55 | 1013.1 |
| 20260502121037 | 65 | 167 | 0.0 | 6.1 | 0.00 | 0.00 | 0.00 | 56 | 1013.1 |
| 20260502120537 | 65 | 143 | 0.0 | 6.1 | 0.00 | 0.00 | 0.00 | 55 | 1013.2 |
| 20260502115534 | 65 | 63 | 0.0 | 2.6 | 0.00 | 0.00 | 0.00 | 58 | 1013.2 |
| 20260502115037 | 64 | 266 | 0.0 | 3.5 | 0.00 | 0.00 | 0.00 | 59 | 1013.4 |
| 20260502114532 | 64 | 153 | 0.0 | 3.5 | 0.00 | 0.00 | 0.00 | 58 | 1013.3 |
| 20260502114031 | 63 | 242 | 0.0 | 2.6 | 0.00 | 0.00 | 0.00 | 59 | 1013.4 |
| 20260502113530 | 64 | 246 | 0.0 | 6.1 | 0.00 | 0.00 | 0.00 | 58 | 1013.6 |
| 20260502113029 | 64 | 267 | 0.0 | 6.1 | 0.00 | 0.00 | 0.00 | 59 | 1013.6 |
| 20260502112528 | 63 | 142 | 0.0 | 3.5 | 0.00 | 0.00 | 0.00 | 60 | 1013.7 |
| 20260502112027 | 63 | 125 | 0.0 | 2.6 | 0.00 | 0.00 | 0.00 | 61 | 1013.7 |
| 20260502111526 | 62 | 45 | 0.0 | 1.7 | 0.00 | 0.00 | 0.00 | 62 | 1013.9 |
| 20260502111025 | 62 | 273 | 0.0 | 1.7 | 0.00 | 0.00 | 0.00 | 63 | 1014.0 |
| 20260502110525 | 62 | 268 | 0.0 | 0.9 | 0.00 | 0.00 | 0.00 | 63 | 1013.9 |
| 20260502110024 | 62 | 280 | 0.0 | 5.2 | 0.00 | 0.00 | 0.00 | 62 | 1014.0 |
| 20260502105527 | 62 | 230 | 0.0 | 5.2 | 0.00 | 0.00 | 0.00 | 65 | 1014.0 |
| 20260502105026 | 61 | 252 | 0.0 | 1.7 | 0.00 | 0.00 | 0.00 | 67 | 1014.0 |
| 20260502104519 | 60 | 76 | 0.0 | 2.6 | 0.00 | 0.00 | 0.00 | 68 | 1014.1 |
| 20260502104018 | 60 | 254 | 0.0 | 2.6 | 0.00 | 0.00 | 0.00 | 69 | 1014.2 |
| 20260502103517 | 60 | 235 | 0.0 | 2.6 | 0.00 | 0.00 | 0.00 | 70 | 1014.4 |
| 20260502103020 | 60 | 202 | 0.0 | 0.9 | 0.00 | 0.00 | 0.00 | 71 | 1014.5 |
| 20260502102514 | 60 | 169 | 0.0 | 2.6 | 0.00 | 0.00 | 0.00 | 71 | 1014.5 |
| 20260502102014 | 59 | 169 | 0.0 | 2.6 | 0.00 | 0.00 | 0.00 | 71 | 1014.5 |
| 20260502101513 | 59 | 266 | 0.0 | 2.6 | 0.00 | 0.00 | 0.00 | 72 | 1014.5 |
| 20260502101012 | 59 | 140 | 0.0 | 2.6 | 0.00 | 0.00 | 0.00 | 73 | 1014.4 |
| 20260502100511 | 59 | 264 | 0.0 | 0.9 | 0.00 | 0.00 | 0.00 | 74 | 1014.5 |
| 20260502091505 | 57 | 257 | 0.0 | 0.0 | 0.00 | 0.00 | 0.00 | 75 | 1015.0 |
| 20260502091001 | 57 | 238 | 0.0 | 0.0 | 0.00 | 0.00 | 0.00 | 76 | 1015.1 |
| 20260502090502 | 56 | 121 | 0.0 | 0.0 | 0.00 | 0.00 | 0.00 | 78 | 1015.1 |
| 20260502080104 | 51 | 338 | 0.0 | 0.0 | 0.00 | 0.00 | 0.00 | 90 | 1015.4 |
| 20260502071045 | 49 | 247 | 0.0 | 0.0 | 0.00 | 0.00 | 0.00 | 94 | 1015.6 |
| 20260502070545 | 49 | 247 | 0.0 | 0.0 | 0.00 | 0.00 | 0.00 | 94 | 1015.6 |
| 20260502070045 | 49 | 247 | 0.0 | 0.0 | 0.00 | 0.00 | 0.00 | 94 | 1015.7 |
| 20260502065544 | 49 | 248 | 0.0 | 0.0 | 0.00 | 0.00 | 0.00 | 94 | 1015.6 |
| 20260502065047 | 49 | 248 | 0.0 | 0.0 | 0.00 | 0.00 | 0.00 | 94 | 1015.5 |
| 20260502064555 | 49 | 296 | 0.0 | 0.0 | 0.00 | 0.00 | 0.00 | 95 | 1015.6 |
| 20260502064042 | 49 | 296 | 0.0 | 0.0 | 0.00 | 0.00 | 0.00 | 95 | 1015.6 |
| 20260502063541 | 49 | 242 | 0.0 | 0.0 | 0.00 | 0.00 | 0.00 | 95 | 1015.5 |
| 20260502063041 | 49 | 241 | 0.0 | 0.0 | 0.00 | 0.00 | 0.00 | 95 | 1015.5 |
| 20260502062541 | 49 | 241 | 0.0 | 0.0 | 0.00 | 0.00 | 0.00 | 95 | 1015.5 |
| 20260502062040 | 49 | 241 | 0.0 | 0.0 | 0.00 | 0.00 | 0.00 | 95 | 1015.6 |
| 20260502061539 | 49 | 242 | 0.0 | 0.0 | 0.00 | 0.00 | 0.00 | 95 | 1015.4 |
| 20260502061038 | 49 | 242 | 0.0 | 0.0 | 0.00 | 0.00 | 0.00 | 95 | 1015.4 |
| 20260502060538 | 49 | 242 | 0.0 | 0.0 | 0.00 | 0.00 | 0.00 | 95 | 1015.4 |
| 20260502060039 | 49 | 240 | 0.0 | 0.0 | 0.00 | 0.00 | 0.00 | 95 | 1015.4 |
| 20260502055537 | 49 | 240 | 0.0 | 0.0 | 0.00 | 0.00 | 0.00 | 95 | 1015.4 |
| 20260502055037 | 49 | 240 | 0.0 | 0.0 | 0.00 | 0.00 | 0.00 | 95 | 1015.4 |
| 20260502054542 | 49 | 221 | 0.0 | 0.0 | 0.00 | 0.00 | 0.00 | 95 | 1015.3 |
| 20260502054039 | 49 | 221 | 0.0 | 0.0 | 0.00 | 0.00 | 0.00 | 95 | 1015.3 |
| 20260502053536 | 49 | 221 | 0.0 | 0.0 | 0.00 | 0.00 | 0.00 | 95 | 1015.3 |
| 20260502053037 | 49 | 219 | 0.0 | 0.0 | 0.00 | 0.00 | 0.00 | 95 | 1015.3 |
| 20260502052535 | 48 | 219 | 0.0 | 0.0 | 0.00 | 0.00 | 0.00 | 94 | 1015.3 |
| 20260502052037 | 48 | 229 | 0.0 | 0.0 | 0.00 | 0.00 | 0.00 | 94 | 1015.3 |
| 20260502051539 | 48 | 229 | 0.0 | 0.0 | 0.00 | 0.00 | 0.00 | 94 | 1015.2 |
| 20260502051034 | 48 | 229 | 0.0 | 0.0 | 0.00 | 0.00 | 0.00 | 94 | 1015.2 |
| 20260502050533 | 48 | 229 | 0.0 | 0.0 | 0.00 | 0.00 | 0.00 | 94 | 1015.2 |
| 20260502050032 | 48 | 229 | 0.0 | 0.0 | 0.00 | 0.00 | 0.00 | 94 | 1015.2 |
| 20260502045531 | 48 | 229 | 0.0 | 0.0 | 0.00 | 0.00 | 0.00 | 94 | 1015.3 |
| 20260502045032 | 48 | 229 | 0.0 | 0.0 | 0.00 | 0.00 | 0.00 | 93 | 1015.2 |
| 20260502044029 | 48 | 229 | 0.0 | 0.0 | 0.00 | 0.00 | 0.00 | 93 | 1015.1 |
| 20260502043528 | 48 | 229 | 0.0 | 0.0 | 0.00 | 0.00 | 0.00 | 93 | 1015.2 |
| 20260502043030 | 48 | 229 | 0.0 | 0.0 | 0.00 | 0.00 | 0.00 | 93 | 1015.2 |
| 20260502042528 | 48 | 229 | 0.0 | 0.0 | 0.00 | 0.00 | 0.00 | 93 | 1015.2 |
| 20260502042028 | 48 | 229 | 0.0 | 0.0 | 0.00 | 0.00 | 0.00 | 93 | 1015.2 |
| 20260502041528 | 48 | 256 | 0.0 | 0.0 | 0.00 | 0.00 | 0.00 | 92 | 1015.2 |
| 20260502041026 | 48 | 256 | 0.0 | 0.0 | 0.00 | 0.00 | 0.00 | 92 | 1015.3 |
| 20260502040526 | 48 | 256 | 0.0 | 0.0 | 0.00 | 0.00 | 0.00 | 92 | 1015.4 |
| 20260502040037 | 48 | 257 | 0.0 | 0.0 | 0.00 | 0.00 | 0.00 | 92 | 1015.4 |
| 20260502035526 | 48 | 328 | 0.0 | 0.0 | 0.00 | 0.00 | 0.00 | 92 | 1015.3 |
| 20260502035025 | 48 | 268 | 0.0 | 0.0 | 0.00 | 0.00 | 0.00 | 92 | 1015.4 |
| 20260502034527 | 48 | 315 | 0.0 | 0.0 | 0.00 | 0.00 | 0.00 | 91 | 1015.3 |
| 20260502034024 | 48 | 323 | 0.0 | 0.0 | 0.00 | 0.00 | 0.00 | 91 | 1015.4 |
| 20260502033524 | 48 | 350 | 0.0 | 0.0 | 0.00 | 0.00 | 0.00 | 91 | 1015.4 |
| 20260502033023 | 49 | 257 | 0.0 | 0.0 | 0.00 | 0.00 | 0.00 | 91 | 1015.4 |
| 20260502032522 | 49 | 257 | 0.0 | 0.0 | 0.00 | 0.00 | 0.00 | 91 | 1015.5 |
| 20260502032021 | 49 | 257 | 0.0 | 0.0 | 0.00 | 0.00 | 0.00 | 91 | 1015.6 |
| 20260502031521 | 49 | 257 | 0.0 | 0.0 | 0.00 | 0.00 | 0.00 | 91 | 1015.6 |
| 20260502031021 | 49 | 257 | 0.0 | 0.0 | 0.00 | 0.00 | 0.00 | 91 | 1015.6 |
| 20260502030521 | 49 | 257 | 0.0 | 0.0 | 0.00 | 0.00 | 0.00 | 91 | 1015.6 |
| 20260502030025 | 49 | 257 | 0.0 | 0.0 | 0.00 | 0.00 | 0.00 | 91 | 1015.6 |
| 20260502025520 | 49 | 257 | 0.0 | 0.0 | 0.00 | 0.00 | 0.00 | 91 | 1015.6 |
| 20260502025019 | 49 | 257 | 0.0 | 0.0 | 0.00 | 0.00 | 0.00 | 91 | 1015.5 |
| 20260502024523 | 49 | 257 | 0.0 | 0.0 | 0.00 | 0.00 | 0.00 | 91 | 1015.5 |
| 20260502024018 | 49 | 257 | 0.0 | 0.0 | 0.00 | 0.00 | 0.00 | 91 | 1015.6 |
| 20260502023519 | 49 | 252 | 0.0 | 0.0 | 0.00 | 0.00 | 0.00 | 91 | 1015.6 |
| 20260502023018 | 49 | 252 | 0.0 | 0.0 | 0.00 | 0.00 | 0.00 | 91 | 1015.6 |
| 20260502022518 | 49 | 252 | 0.0 | 0.0 | 0.00 | 0.00 | 0.00 | 91 | 1015.7 |
| 20260502022021 | 49 | 252 | 0.0 | 0.0 | 0.00 | 0.00 | 0.00 | 91 | 1015.6 |
| 20260502021516 | 49 | 252 | 0.0 | 0.0 | 0.00 | 0.00 | 0.00 | 91 | 1015.7 |
| 20260502021015 | 49 | 252 | 0.0 | 0.0 | 0.00 | 0.00 | 0.00 | 90 | 1015.7 |
| 20260502020515 | 49 | 252 | 0.0 | 0.0 | 0.00 | 0.00 | 0.00 | 90 | 1015.7 |
| 20260502020014 | 50 | 252 | 0.0 | 0.0 | 0.00 | 0.00 | 0.00 | 91 | 1015.8 |
| 20260502015515 | 50 | 253 | 0.0 | 0.0 | 0.00 | 0.00 | 0.00 | 91 | 1015.7 |
| 20260502015013 | 50 | 253 | 0.0 | 0.0 | 0.00 | 0.00 | 0.00 | 91 | 1015.8 |
| 20260502014532 | 50 | 253 | 0.0 | 0.0 | 0.00 | 0.00 | 0.00 | 91 | 1015.8 |
| 20260502014012 | 50 | 253 | 0.0 | 0.0 | 0.00 | 0.00 | 0.00 | 91 | 1015.9 |
| 20260502013512 | 50 | 253 | 0.0 | 0.0 | 0.00 | 0.00 | 0.00 | 91 | 1016.0 |
| 20260502013010 | 50 | 253 | 0.0 | 0.0 | 0.00 | 0.00 | 0.00 | 91 | 1016.0 |
| 20260502012510 | 50 | 253 | 0.0 | 0.0 | 0.00 | 0.00 | 0.00 | 91 | 1016.1 |
| 20260502012010 | 50 | 253 | 0.0 | 0.0 | 0.00 | 0.00 | 0.00 | 91 | 1016.1 |
| 20260502011508 | 50 | 253 | 0.0 | 0.0 | 0.00 | 0.00 | 0.00 | 90 | 1016.2 |
| 20260502011008 | 50 | 253 | 0.0 | 0.0 | 0.00 | 0.00 | 0.00 | 90 | 1016.2 |
| 20260502010508 | 50 | 253 | 0.0 | 0.0 | 0.00 | 0.00 | 0.00 | 90 | 1016.2 |
| 20260502010007 | 50 | 253 | 0.0 | 0.0 | 0.00 | 0.00 | 0.00 | 90 | 1016.3 |
| 20260502005506 | 51 | 253 | 0.0 | 0.0 | 0.00 | 0.00 | 0.00 | 90 | 1016.4 |
| 20260502005005 | 51 | 253 | 0.0 | 0.0 | 0.00 | 0.00 | 0.00 | 90 | 1016.4 |
| 20260502004504 | 51 | 253 | 0.0 | 0.0 | 0.00 | 0.00 | 0.00 | 90 | 1016.5 |
| 20260502004004 | 51 | 253 | 0.0 | 0.0 | 0.00 | 0.00 | 0.00 | 90 | 1016.5 |
| 20260502003502 | 51 | 253 | 0.0 | 0.0 | 0.00 | 0.00 | 0.00 | 90 | 1016.6 |
| 20260502003001 | 51 | 253 | 0.0 | 0.0 | 0.00 | 0.00 | 0.00 | 90 | 1016.6 |
| 20260502002502 | 51 | 253 | 0.0 | 0.0 | 0.00 | 0.00 | 0.00 | 90 | 1016.6 |
| 20260502002002 | 52 | 253 | 0.0 | 0.0 | 0.00 | 0.00 | 0.00 | 90 | 1016.6 |
| 20260502001634 | 52 | 253 | 0.0 | 0.0 | 0.00 | 0.00 | 0.00 | 89 | 1016.6 |
| 20260502001101 | 52 | 253 | 0.0 | 0.0 | 0.00 | 0.00 | 0.00 | 89 | 1016.6 |
| 20260502000558 | 52 | 253 | 0.0 | 0.0 | 0.00 | 0.00 | 0.00 | 89 | 1016.6 |
| 20260502000058 | 52 | 256 | 0.0 | 0.0 | 0.00 | 0.00 | 0.00 | 89 | 1016.7 |
| 20260501235557 | 53 | 256 | 0.0 | 0.0 | 0.00 | 0.00 | 0.00 | 89 | 1016.6 |
| 20260501235056 | 53 | 256 | 0.0 | 0.0 | 0.00 | 0.00 | 0.00 | 89 | 1016.6 |
| 20260501234555 | 53 | 256 | 0.0 | 0.0 | 0.00 | 0.00 | 0.00 | 89 | 1016.7 |
| 20260501234055 | 53 | 256 | 0.0 | 0.0 | 0.00 | 0.00 | 0.00 | 88 | 1016.7 |
| 20260501233554 | 53 | 256 | 0.0 | 1.7 | 0.00 | 0.00 | 0.00 | 88 | 1016.6 |
| 20260501233054 | 53 | 256 | 0.0 | 1.7 | 0.00 | 0.00 | 0.00 | 88 | 1016.7 |
| 20260501232554 | 54 | 256 | 0.0 | 0.0 | 0.00 | 0.00 | 0.00 | 88 | 1016.7 |
| 20260501232056 | 54 | 256 | 0.0 | 0.0 | 0.00 | 0.00 | 0.00 | 87 | 1016.7 |
| 20260501231552 | 54 | 256 | 0.0 | 0.0 | 0.00 | 0.00 | 0.00 | 87 | 1016.8 |
| 20260501231051 | 54 | 256 | 0.0 | 0.0 | 0.00 | 0.00 | 0.00 | 87 | 1016.8 |
| 20260501230551 | 54 | 256 | 0.0 | 0.0 | 0.00 | 0.00 | 0.00 | 86 | 1016.7 |
| 20260501230050 | 54 | 229 | 0.0 | 2.6 | 0.00 | 0.00 | 0.00 | 86 | 1016.7 |
| 20260501225550 | 55 | 229 | 0.0 | 2.6 | 0.00 | 0.00 | 0.00 | 86 | 1016.7 |
| 20260501225050 | 55 | 229 | 0.0 | 4.3 | 0.00 | 0.00 | 0.00 | 86 | 1016.7 |
| 20260501224557 | 55 | 229 | 1.7 | 4.3 | 0.00 | 0.00 | 0.00 | 87 | 1016.7 |
| 20260501224048 | 55 | 262 | 0.0 | 0.0 | 0.00 | 0.00 | 0.00 | 86 | 1016.7 |
| 20260501223550 | 55 | 262 | 0.0 | 0.0 | 0.00 | 0.00 | 0.00 | 86 | 1016.9 |
| 20260501223048 | 55 | 262 | 0.0 | 0.0 | 0.00 | 0.00 | 0.00 | 86 | 1016.9 |
| 20260501222548 | 55 | 262 | 0.0 | 0.0 | 0.00 | 0.00 | 0.00 | 85 | 1016.9 |
| 20260501222048 | 55 | 262 | 0.0 | 0.0 | 0.00 | 0.00 | 0.00 | 85 | 1016.9 |
| 20260501221547 | 55 | 262 | 0.0 | 0.0 | 0.00 | 0.00 | 0.00 | 85 | 1017.0 |
| 20260501221047 | 56 | 262 | 0.0 | 0.0 | 0.00 | 0.00 | 0.00 | 85 | 1017.0 |
| 20260501220547 | 56 | 262 | 0.0 | 0.0 | 0.00 | 0.00 | 0.00 | 85 | 1016.9 |
| 20260501220050 | 56 | 262 | 0.0 | 0.0 | 0.00 | 0.00 | 0.00 | 85 | 1016.9 |
| 20260501215547 | 56 | 262 | 0.0 | 0.9 | 0.00 | 0.00 | 0.00 | 84 | 1016.9 |
| 20260501215047 | 56 | 262 | 0.0 | 0.9 | 0.00 | 0.00 | 0.00 | 84 | 1016.9 |
| 20260501214546 | 56 | 263 | 0.0 | 0.0 | 0.00 | 0.00 | 0.00 | 84 | 1016.8 |
| 20260501214045 | 56 | 263 | 0.0 | 0.9 | 0.00 | 0.00 | 0.00 | 84 | 1016.8 |
| 20260501213545 | 56 | 263 | 0.0 | 0.9 | 0.00 | 0.00 | 0.00 | 84 | 1016.9 |
| 20260501213051 | 56 | 263 | 0.0 | 0.9 | 0.00 | 0.00 | 0.00 | 84 | 1016.9 |
| 20260501212545 | 56 | 263 | 0.0 | 0.0 | 0.00 | 0.00 | 0.00 | 83 | 1016.9 |
| 20260501212045 | 57 | 265 | 0.0 | 0.0 | 0.00 | 0.00 | 0.00 | 83 | 1016.8 |
| 20260501211549 | 57 | 265 | 0.0 | 0.0 | 0.00 | 0.00 | 0.00 | 83 | 1016.8 |
| 20260501211049 | 57 | 265 | 0.0 | 0.9 | 0.00 | 0.00 | 0.00 | 83 | 1016.8 |
| 20260501210544 | 57 | 265 | 0.0 | 1.7 | 0.00 | 0.00 | 0.00 | 83 | 1016.9 |
| 20260501210054 | 57 | 265 | 0.0 | 1.7 | 0.00 | 0.00 | 0.00 | 83 | 1016.8 |
| 20260501205550 | 57 | 265 | 0.0 | 0.9 | 0.00 | 0.00 | 0.00 | 83 | 1016.8 |
| 20260501205044 | 56 | 265 | 0.0 | 0.9 | 0.00 | 0.00 | 0.00 | 83 | 1016.8 |
| 20260501204546 | 56 | 265 | 0.0 | 1.7 | 0.00 | 0.00 | 0.00 | 83 | 1016.8 |
| 20260501204043 | 57 | 265 | 0.0 | 1.7 | 0.00 | 0.00 | 0.00 | 83 | 1016.9 |
| 20260501203543 | 57 | 265 | 0.0 | 1.7 | 0.00 | 0.00 | 0.00 | 83 | 1016.9 |
| 20260501203043 | 57 | 265 | 0.0 | 1.7 | 0.00 | 0.00 | 0.00 | 83 | 1016.8 |
| 20260501202543 | 57 | 273 | 0.0 | 0.0 | 0.00 | 0.00 | 0.00 | 82 | 1016.7 |
| 20260501202043 | 57 | 320 | 0.0 | 1.7 | 0.00 | 0.00 | 0.00 | 82 | 1016.8 |
| 20260501201543 | 57 | 345 | 0.0 | 1.7 | 0.00 | 0.00 | 0.00 | 82 | 1016.7 |
| 20260501201046 | 58 | 230 | 0.0 | 2.6 | 0.00 | 0.00 | 0.00 | 82 | 1016.7 |
| 20260501200542 | 58 | 231 | 0.9 | 2.6 | 0.00 | 0.00 | 0.00 | 81 | 1016.7 |
| 20260501200043 | 58 | 229 | 0.0 | 2.6 | 0.00 | 0.00 | 0.00 | 81 | 1016.7 |
| 20260501195542 | 58 | 228 | 0.9 | 3.5 | 0.00 | 0.00 | 0.00 | 81 | 1016.7 |
| 20260501195042 | 58 | 265 | 0.9 | 3.5 | 0.00 | 0.00 | 0.00 | 81 | 1016.5 |
| 20260501194541 | 59 | 267 | 0.0 | 1.7 | 0.00 | 0.00 | 0.00 | 81 | 1016.5 |
| 20260501194042 | 59 | 296 | 0.0 | 1.7 | 0.00 | 0.00 | 0.00 | 80 | 1016.4 |
| 20260501193540 | 59 | 296 | 0.0 | 1.7 | 0.00 | 0.00 | 0.00 | 80 | 1016.4 |
| 20260501193040 | 59 | 296 | 0.0 | 1.7 | 0.00 | 0.00 | 0.00 | 80 | 1016.4 |
| 20260501192540 | 60 | 296 | 0.0 | 1.7 | 0.00 | 0.00 | 0.00 | 80 | 1016.4 |
| 20260501192039 | 60 | 295 | 0.0 | 2.6 | 0.00 | 0.00 | 0.00 | 79 | 1016.4 |
| 20260501191539 | 60 | 249 | 0.9 | 4.3 | 0.00 | 0.00 | 0.00 | 79 | 1016.4 |
| 20260501191039 | 60 | 248 | 0.9 | 4.3 | 0.00 | 0.00 | 0.00 | 78 | 1016.4 |
| 20260501190538 | 60 | 257 | 0.0 | 3.5 | 0.00 | 0.00 | 0.00 | 78 | 1016.4 |
| 20260501190038 | 61 | 24 | 0.9 | 3.5 | 0.00 | 0.00 | 0.00 | 77 | 1016.3 |
| 20260501185538 | 61 | 244 | 0.9 | 3.5 | 0.00 | 0.00 | 0.00 | 77 | 1016.3 |
| 20260501185037 | 62 | 243 | 0.9 | 3.5 | 0.00 | 0.00 | 0.00 | 76 | 1016.3 |
| 20260501184536 | 62 | 243 | 0.9 | 4.3 | 0.00 | 0.00 | 0.00 | 75 | 1016.3 |
| 20260501184036 | 62 | 232 | 1.7 | 5.2 | 0.00 | 0.00 | 0.00 | 75 | 1016.3 |
| 20260501183536 | 63 | 263 | 0.9 | 3.5 | 0.00 | 0.00 | 0.00 | 74 | 1016.3 |
| 20260501183036 | 63 | 259 | 0.9 | 4.3 | 0.00 | 0.00 | 0.00 | 73 | 1016.2 |
| 20260501182535 | 64 | 257 | 1.7 | 4.3 | 0.00 | 0.00 | 0.00 | 72 | 1016.2 |
| 20260501182034 | 64 | 263 | 0.9 | 4.3 | 0.00 | 0.00 | 0.00 | 71 | 1016.3 |
| 20260501181536 | 65 | 327 | 1.7 | 3.5 | 0.00 | 0.00 | 0.00 | 70 | 1016.3 |
| 20260501181036 | 65 | 245 | 0.9 | 3.5 | 0.00 | 0.00 | 0.00 | 69 | 1016.2 |
| 20260501180534 | 65 | 242 | 1.7 | 6.1 | 0.00 | 0.00 | 0.00 | 68 | 1016.1 |
| 20260501180040 | 66 | 244 | 1.7 | 6.1 | 0.00 | 0.00 | 0.00 | 68 | 1016.1 |
| 20260501175534 | 66 | 233 | 0.0 | 7.0 | 0.00 | 0.00 | 0.00 | 67 | 1016.0 |
| 20260501175033 | 67 | 258 | 2.6 | 7.0 | 0.00 | 0.00 | 0.00 | 67 | 1016.0 |
| 20260501174534 | 67 | 245 | 0.9 | 7.0 | 0.00 | 0.00 | 0.00 | 66 | 1015.9 |
| 20260501174032 | 67 | 258 | 1.7 | 7.0 | 0.00 | 0.00 | 0.00 | 66 | 1015.8 |
| 20260501173533 | 68 | 286 | 0.9 | 5.2 | 0.00 | 0.00 | 0.00 | 66 | 1015.9 |
| 20260501173032 | 68 | 217 | 0.9 | 7.0 | 0.00 | 0.00 | 0.00 | 66 | 1015.9 |
| 20260501172532 | 68 | 248 | 1.7 | 7.0 | 0.00 | 0.00 | 0.00 | 67 | 1015.9 |